User: anonymous
Location: Unspecified
(0.0000°N, 0.0000°E)
Time: 11:18:00
(UTC+00:00)
Language:

OPTUS D1 - Orbit

View from above orbital plane
View from above orbital plane
View from above satellite
View from above satellite

Ground track
Ground track

The orbit data is extracted from the following two-line orbital elements,

1 29495U 06043B   14243.71927493 -.00000121  00000-0  10000-3 0  5612
2 29495 000.0507 292.9924 0003160 221.2276 244.5268 01.00272139 28952
Epoch (UTC): 31 August 2014 17:15:45
Eccentricity: 0.0003160
inclination: 0.0507°
perigee height: 35773 km
apogee height: 35799 km
right ascension of ascending node: 292.9924°
argument of perigee: 221.2276°
revolutions per day: 1.00272139
mean anomaly at epoch: 244.5268°
orbit number at epoch: 2895

The dashed part of the orbit path shows where the satellite is in the earth's shadow,  

DLR